Home > Weather > Currie > Past weeks

Flag for Australia Past Weather in Currie, Tasmania, Australia — Yesterday and Last 2 Weeks

Now
51 °F

Cool.


Feels Like: 48 °F
Forecast: 57 / 60 °F
Wind: 8 mph from West

Location: King Island Airport

Current Time: Jun 27, 2016 at 10:38:26 AM

Latest Report: Jun 27, 2016 at 9:00 AM


Visibility: N/A

Pressure: 29.98 "Hg

Humidity: 74%

Dew Point: 43 °F

Location of CurrieLocation

Past Weather in Currie — Graph

°F

Currie Temperature Yesterday

Maximum temperature yesterday: 53 °F (at 7:00 PM)
Minimum temperature yesterday: 51 °F (at 6:00 AM)
Average temperature yesterday: 52 °F

High & Low Weather Summary for the Past Weeks

 TemperatureHumidityPressure
High58 °F (Jun 17, 12:00 PM)100% (Jun 19, 8:00 AM)30.56 "Hg (Jun 19, 8:00 AM)
Low43 °F (Jun 24, 6:00 PM)56% (Jun 24, 4:00 PM)29.23 "Hg (Jun 21, 9:00 PM)
Average52 °F82%29.97 "Hg
* Reported Jun 12 9:00 AM — Jun 27 9:00 AM, Currie, Weather by CustomWeather, © 2016

Note: Actual official high and low records may vary slightly from our data, if they occured in-between our weather recording intervals... More about our weather records

Advertising

Currie Weather History for the Previous 24 Hours

Scroll right to see more
 ConditionsComfort  
Time TempWeatherWind HumidityBarometerVisibility
9:00 AM
Mon, Jun 27
51 °FCool.8 mph74%29.98 "HgN/A
8:00 AM48 °FCool.7 mph83%29.96 "HgN/A
7:00 AM47 °FCool.7 mph82%29.94 "HgN/A
6:00 AM49 °FOvercast.5 mph85%29.93 "HgN/A
5:00 AM49 °FCool.7 mph90%29.91 "HgN/A
4:00 AM50 °FCool.10 mph91%29.90 "HgN/A
3:00 AM51 °FOvercast.8 mph95%29.90 "HgN/A
2:00 AM51 °FCool.10 mph95%29.89 "HgN/A
1:00 AM52 °FCool.18 mph94%29.89 "HgN/A
12:00 AM52 °FLow clouds.22 mph93%29.90 "Hg4 mi
11:00 PM
Sun, Jun 26
52 °FCool.25 mph84%29.90 "HgN/A
10:00 PM51 °FCool.22 mph85%29.91 "HgN/A
9:00 PM53 °FOvercast.22 mph76%29.92 "HgN/A
8:00 PM53 °FCool.22 mph76%29.92 "HgN/A
7:00 PM53 °FCool.23 mph71%29.93 "HgN/A
6:00 PM53 °FOvercast.22 mph71%29.93 "HgN/A
4:00 PM52 °FCool.22 mph74%29.94 "HgN/A
3:00 PM52 °FOvercast.21 mph73%29.95 "HgN/A
2:00 PM51 °FCool.20 mph74%29.96 "HgN/A
1:00 PM51 °FCool.21 mph70%29.98 "HgN/A
12:00 PM52 °FOvercast.23 mph70%30.01 "HgN/A
11:00 AM52 °FCool.21 mph67%30.03 "HgN/A
10:00 AM53 °FCool.18 mph69%30.05 "HgN/A
Weather by CustomWeather, © 2016

See weather overviewHow to use our weather pages